Home   Weather   Cedar Rapids   Past weeks

Flag for USA Past Weather in Cedar Rapids, Iowa, USA — Yesterday and Last 2 Weeks

Now
37 °F

Overcast.


Feels Like: 27 °F
Forecast: 38 / 53 °F
Wind: 18 mph from Northwest

Location: Cedar Rapids Municipal Airport

Current Time: Apr 27, 2017 at 6:24:08 am

Latest Report: Apr 27, 2017 at 5:52 am


Visibility: 10 mi

Pressure: 29.52 "Hg

Humidity: 93%

Dew Point: 35 °F

Location of Cedar RapidsLocation

Past Weather in Cedar Rapids — Graph

°F

Cedar Rapids Temperature Yesterday

Maximum temperature yesterday: 59 °F (at 1:52 am)
Minimum temperature yesterday: 42 °F (at 10:52 pm)
Average temperature yesterday: 50 °F

High & Low Weather Summary for the Past Weeks

 TemperatureHumidityPressure
High78 °F (Apr 15, 2:52 pm)100% (Apr 13, 3:32 am)30.32 "Hg (Apr 13, 3:32 am)
Low35 °F (Apr 12, 6:52 am)17% (Apr 24, 2:52 pm)29.36 "Hg (Apr 26, 3:52 am)
Average57 °F69%29.95 "Hg
* Reported Apr 12 4:52 am — Apr 27 4:52 am, Cedar Rapids, Weather by CustomWeather, © 2017

Note: Actual official high and low records may vary slightly from our data, if they occured in-between our weather recording intervals... More about our weather records

Advertising

Cedar Rapids Weather History for the Previous 24 Hours

Scroll right to see more
 ConditionsComfort  
Time TempWeatherWind HumidityBarometerVisibility
4:52 am
Thu, Apr 27
37 °FLight rain. Overcast.16 mph96%29.49 "Hg10 mi
4:37 am37 °FLight rain. Mostly cloudy.18 mph96%29.48 "Hg7 mi
3:52 am36 °FLight rain. Overcast.12 mph97%29.52 "Hg8 mi
2:52 am38 °FLight rain. Overcast.20 mph97%29.49 "Hg9 mi
1:52 am39 °FLight rain. Fog.12 mph100%29.49 "Hg6 mi
1:35 am39 °FRain. Fog.14 mph100%29.49 "Hg5 mi
1:12 am40 °FRain. Fog.16 mph100%29.51 "Hg5 mi
12:52 am40 °FLight rain. Fog.14 mph100%29.52 "Hg5 mi
12:17 am40 °FLight rain. Fog.14 mph100%29.52 "Hg6 mi
12:01 am41 °FLight rain. Mostly cloudy.15 mph100%29.51 "Hg7 mi
10:52 pm
Wed, Apr 26
42 °FLight rain. Mostly cloudy.14 mph96%29.53 "Hg8 mi
9:52 pm44 °FLight rain. Overcast.12 mph93%29.53 "Hg8 mi
8:52 pm45 °FOvercast.13 mph86%29.51 "Hg10 mi
7:52 pm46 °FOvercast.14 mph83%29.53 "Hg10 mi
6:52 pm47 °FLight rain. Overcast.15 mph83%29.53 "Hg10 mi
5:52 pm49 °FOvercast.14 mph80%29.54 "Hg10 mi
4:52 pm50 °FOvercast.13 mph80%29.52 "Hg10 mi
3:52 pm50 °FOvercast.14 mph83%29.52 "Hg10 mi
2:52 pm49 °FOvercast.15 mph86%29.52 "Hg10 mi
1:52 pm48 °FOvercast.14 mph93%29.52 "Hg10 mi
12:52 pm48 °FOvercast.16 mph96%29.52 "Hg10 mi
11:52 am48 °FLow clouds.17 mph96%29.49 "Hg10 mi
10:52 am47 °FFog.16 mph100%29.49 "Hg4 mi
9:52 am48 °FLow clouds.17 mph100%29.47 "Hg10 mi
8:52 am48 °FLight rain. Low clouds.16 mph100%29.45 "Hg8 mi
7:52 am49 °FLight rain. Fog.14 mph100%29.42 "Hg3 mi
6:52 am51 °FFog.13 mph100%29.38 "Hg4 mi
Weather by CustomWeather, © 2017

See weather overviewHow to use our weather pages